User: anonymous   Login
Location: Utrecht
(52.0830°N, 5.1330°E)
Time: 02:49:48
(UTC+02:00)
Language:

Cosmos 1092 Rocket - Orbit

View from above orbital plane
View from above orbital plane
View from above satellite
View from above satellite

Ground track
Ground track

The orbit data is extracted from the following two-line orbital elements,

1 11327U 79030B   15107.77427700  .00000072  00000-0  57576-4 0  9994
2 11327 082.9505 163.4970 0026529 233.0852 265.6629 13.76958407810221
Epoch (UTC): 17 April 2015 18:34:57
Eccentricity: 0.0026529
inclination: 82.9505°
perigee height: 955 km
apogee height: 994 km
right ascension of ascending node: 163.4970°
argument of perigee: 233.0852°
revolutions per day: 13.76958407
mean anomaly at epoch: 265.6629°
orbit number at epoch: 81022

The dashed part of the orbit path shows where the satellite is in the earth's shadow,  

DLR